Find Starlink 32782

NORAD ID: 62821 Int'l Des: 2025-018 Owner: SPXS Country: US Constellation: starlink operational
LEOCIRCULAR

实时位置

正在加载3D地球...

关于 Starlink 32782

正在加载描述...

即将过境

Passes for default location (London). Set your location on the main map for personalized predictions.

高度历史

Loading altitude history...

两行轨道根数

1 62821U 25018R 26125.20925961 .00043018 00000-0 14550-2 0 9998
2 62821 53.1584 46.9366 0001125 90.3237 269.7892 15.30226335 71836
Epoch: May 5, 2026 • Age: 5 hours

当前状态

高度 475.5 km
速度 7.63 km/s
星下点 3.79°N, 157.57°W
发射日期 Jan 24, 2025
运行时间 1.2 years
类型 internet

技术详情

分类 Payload
质量 730.00 kg
干质量 700.00 kg
总质量 730.00 kg
长度 0.30 m
直径 4.10 m
跨度 29.00 m
形状 Box + pan
制造商 SPXS
平台类型 Starlink V2M
阶段状态 In Orbit
所有者/国家 SPXS/US

Most Searched